Flag for Germany Weather past 2 weeks in Bitburg, Rhineland-Palatinate, Germany

Now
73 °F

Sunny.


Feels Like: 75 °F
Forecast: 65 / 87 °F
Wind: 6 mph from East

Location: Spangdahlem

Current Time: Jul 4, 2015 at 7:30:09 AM

Latest Report: Jul 4, 2015 at 6:58 AM


Visibility: N/A

Pressure: 30.02 "Hg

Humidity: 74%

Dew point: 64 °F

Location of BitburgLocation

Historic Weather in Bitburg — Graph

°F

Bitburg temperature yesterday

Maximum temperature yesterday: 92 °F (at 4:58 PM)
Minimum temperature yesterday: 69 °F (at 6:58 AM)
Average temperature yesterday: 81 °F

Past Weeks' High & Low Weather Summary

 TemperatureHumidityPressure
High97 °F (Jul 2, 4:58 PM)100% (Jun 21, 5:00 AM)30.20 "Hg (Jun 21, 5:00 AM)
Low44 °F (Jun 23, 2:58 AM)27% (Jul 2, 4:58 PM)29.66 "Hg (Jun 22, 9:58 PM)
Average65 °F68%30.05 "Hg
* Reported Jun 19 5:03 AM — Jul 4 5:58 AM, Bitburg, Weather by CustomWeather, © 2015

Note: Actual official high and low records may vary slightly from our data, if they occured in-between our weather recording intervals... More about our weather records

Advertising

Bitburg weather history for previous 24 hours

 ConditionsComfort  
Time TempWeatherWind HumidityBarometerVisibility
5:58 AM
Sat, Jul 4
71 °FClear.6 mph81%30.03 "HgN/A
4:58 AM73 °FClear.5 mph74%30.03 "HgN/A
3:58 AM75 °FClear.8 mph69%30.03 "HgN/A
2:58 AM76 °FClear.7 mph71%30.05 "HgN/A
1:58 AM77 °FClear.6 mph69%30.06 "HgN/A
12:58 AM79 °FPassing clouds.8 mph65%30.07 "HgN/A
11:58 PM
Fri, Jul 3
80 °FClear.8 mph62%30.09 "HgN/A
10:58 PM81 °FClear.7 mph57%30.10 "HgN/A
9:58 PM82 °FSunny.7 mph51%30.10 "HgN/A
8:58 PM86 °FSunny.5 mph45%30.10 "HgN/A
7:58 PM89 °FSunny.2 mph40%30.10 "HgN/A
6:58 PM91 °FSunny.No wind30%30.10 "HgN/A
5:58 PM92 °FSunny.6 mph31%30.10 "HgN/A
4:58 PM92 °FPassing clouds.3 mph34%30.13 "HgN/A
3:58 PM91 °FSunny.2 mph34%30.14 "HgN/A
2:58 PM91 °FSunny.3 mph37%30.14 "HgN/A
1:58 PM89 °FSunny.No wind45%30.16 "HgN/A
12:58 PM86 °FSunny.6 mph49%30.16 "HgN/A
11:58 AM83 °FSunny.6 mph56%30.17 "HgN/A
10:58 AM81 °FSunny.3 mph58%30.17 "HgN/A
9:58 AM77 °FSunny.3 mph62%30.17 "HgN/A
8:58 AM73 °FSunny.3 mph69%30.17 "HgN/A
7:58 AM70 °FSunny.3 mph78%30.18 "HgN/A
Weather by CustomWeather, © 2015

See weather overviewHow to use our weather pages